SCP
0 0 0 0 0 0 0 0 0 0 0 0 0 0 0 0 0 0 0 0 0 0 0 0 0 0 0 0 0 0 0 0 0 0 0 0 0 0 0 0 0 0 0 0 0
0 0 0 0 0 0 0 0 0 0 0 0 0 0 0 0 0 0 0 0 0 0 0 0 0 0 0 0 0 0 0 0 0 0 0 0 0 0 0 0 0 0 0 0 0
0 0 0 0 0 0 0 0 0 0 0 0 0 0 0 0 0 0 0 0 0 0 0 0 0 0 0 0 0 0 0 0 0 0 0 0 0 0 0 0 0 0 0 0 0
0 0 0 0 0 0 0 0 0 0 0 0 0 0 0 0 0 0 0 0 0 0 0 0 0 0 0 0 0 0 0 0 0 0 0 0 0 0 0 0 0 0 0 0 0
0 0 0 0 0 0 0 0 0 0 0 0 0 0 0 0 0 0 0 0 0 0 0 0 0 0 0 0 0 0 0 0 0 0 0 0 0 0 0 0 0 0 0 0 0
0 0 0 0 0 0 0 0 0 0 0 0 0 0 0 0 0 0 0 0 0 0 0 0 0 0 0 0 0 0 0 0 0 0 0 0 0 0 0 0 0 0 0 0 0
0 0 0 0 0 0 0 0 0 0 0 0 0 0 0 0 0 0 0 0 0 0 0 0 0 0 0 0 0 0 0 0 0 0 0 0 0 0 0 0 0 0 0 0 0
0 0 0 0 0 0 0 0 0 0 0 0 0 0 0 0 0 0 0 0 0 0 0 0 0 0 0 0 0 0 0 0 0 0 0 0 0 0 0 0 0 0 0 0 0
0 0 0 0 0 0 0 0 0 0 0 0 0 0 0 0 0 0 0 0 0 0 0 0 0 0 0 0 0 0 0 0 0 0 0 0 0 -0 0 0 0 0 0 0 0
0 0 0 0 0 0 0 0 0 0 0 0 0 0 0 0 0 0 0 0 0 0 0 0 0 0 0 0 0 0 0 0 0 0 0 0 0 0 0 0 0 0 0 0 0
0 0 0 0 0 0 0 0 0 0 0 0 0 0 0 0 0 0 0 0 0 0 0 0 0 0 0 0 0 0 0 0 0 0 0 0 0 0 0 0 0 0 0 0 0
0 0 0 0 0 0 0 0 0 0 0 0 0 0 0 0 0 0 0 0 0 0 0 0 0 0 0 0 0 0 0 0 0 0 0 0 0 0 0 0 0 0 0 0 0
0 0 0 0 0 0 0 0 0 0 0 0 0 0 0 0 0 0 0 0 0 0 0 0 0 0 0 0 0 0 0 0 0 0 0 0 -0 -0 -0 0 0 0 0 0 0
0 0 0 0 0 0 0 0 0 0 0 0 0 -0 0 0 -0 0 0 0 0 0 0 0 0 0 0 0 0 0 0 0 0 0 0 0 -0 0 0 0 0 0 -0 -0 0
0 0 0 0 0 0 0 0 0 0 0 0 0 0 0 0 0 0 0 0 0 0 0 0 0 0 0 0 0 0 0 0 0 0 0 0 0 -0 0 0 0 0 0 0 0
0 0 0 0 0 0 0 0 0 0 0 0 0 0 0 0 0 0 0 0 0 0 0 0 0 0 0 0 0 0 0 0 0 0 0 0 0 -0 0 0 0 0 0 0 0
0 -0 0 0 0 0 0 0 0 0 0 0 0 0 0 0 0 0 0 0 0 0 0 0 0 0 0 0 0 0 0 0 0 0 0 0 0 0 0 0 0 0 0 0 0
0 -0 0 0 0 0 0 0 0 0 0 0 0 0 0 0 0 0 0 0 0 0 0 0 0 0 0 0 0 0 0 0 0 0 0 0 0 0 -0 -0 -0 0 0 0 0
-0 0 0 0 0 0 0 0 0 0 0 0 0 0 0 0 0 0 0 0 0 0 0 0 0 0 0 0 0 0 0 0 0 0 0 0 0 0 0 0 0 0 0 0 0
0 0 0 0 0 0 0 0 0 0 0 0 0 0 0 0 0 0 0 0 0 0 0 0 0 0 0 0 0 0 0 0 0 0 0 0 0 0 0 0 0 0 0 0 0
0 0 0 0 0 0 0 0 0 0 0 0 0 0 0 0 0 0 0 0 0 0 0 0 0 0 0 0 0 0 0 0 0 0 0 0 0 0 0 0 0 0 0 0 0
0 0 0 0 0 0 0 0 0 0 0 0 0 0 0 0 0 0 0 0 0 0 0 0 0 0 0 0 0 0 0 0 0 0 0 0 0 0 0 0 0 -0 0 0 0
0 0 0 0 0 0 0 0 0 0 0 0 0 0 0 0 0 0 0 0 0 0 0 0 0 0 0 0 0 0 0 0 0 0 0 0 0 0 0 0 0 0 0 0 0
0 0 0 0 0 0 0 0 0 0 0 0 0 0 0 0 0 0 0 0 0 0 0 0 0 0 0 0 0 0 0 0 0 0 0 0 0 0 0 0 0 0 0 0 0
0 0 0 0 0 0 0 0 0 0 0 0 0 0 0 0 0 0 0 0 0 0 0 0 0 0 0 0 0 0 0 0 0 0 0 0 0 0 0 0 0 0 0 0 0
0 0 0 0 0 0 0 0 0 0 0 0 0 0 0 0 0 0 0 0 0 0 0 0 0 0 0 0 0 0 0 0 0 0 0 0 0 0 0 0 0 0 0 0 0
0 0 0 0 0 0 0 0 0 0 0 0 0 0 0 0 0 0 0 0 0 0 0 0 0 0 0 0 0 0 0 0 0 0 0 0 0 0 0 0 0 0 0 0 0
Wind_Speed_500mb
50 53 55 48 45 39 38 34 37 43 37 29 31 29 38 35 38 43 52 40 41 28 44 44 38 49 42 27 18 15 2 6 9 9 9 13 10 14 16 25 18 25 20 15 60
51 51 53 57 48 43 36 35 30 35 40 32 29 27 35 37 37 59 51 37 38 29 37 51 41 39 27 10 3 4 4 9 9 7 10 24 20 27 14 22 12 24 24 29 64
53 52 49 50 52 47 41 35 27 26 39 37 28 26 32 39 33 59 54 47 42 37 34 38 39 46 19 11 6 4 7 14 23 34 28 33 22 26 20 8 30 46 41 53 69
56 52 51 48 49 48 45 38 31 33 30 41 34 31 33 35 15 12 38 59 44 41 37 42 52 39 20 17 17 4 24 22 43 35 16 16 24 18 34 22 40 42 47 60 73
63 56 51 50 46 44 44 40 36 33 36 41 37 34 34 35 45 3 15 55 57 53 47 47 45 22 17 19 24 9 13 29 50 37 28 17 19 17 40 28 18 41 54 61 65
70 63 53 49 50 44 42 39 39 35 36 39 45 32 45 36 48 55 8 30 55 59 53 53 35 28 30 17 20 14 19 39 42 43 27 12 12 9 29 35 26 37 57 63 66
77 69 59 49 50 46 43 39 39 37 37 35 43 46 50 40 9 47 47 39 49 60 56 57 50 22 38 20 17 4 9 20 54 37 16 18 15 16 21 32 41 43 50 67 66
80 75 66 53 49 49 45 40 37 36 33 38 41 38 32 50 47 27 43 46 58 53 48 40 41 28 9 34 12 9 4 12 27 26 20 18 18 12 39 37 45 46 53 62 68
83 79 70 59 50 48 44 40 33 35 31 36 38 37 17 37 57 55 50 48 51 53 43 40 38 13 16 11 7 8 15 20 26 22 14 15 13 22 35 52 56 51 61 65 71
88 83 75 65 55 50 46 40 32 30 33 30 31 21 33 32 60 72 52 49 52 47 46 33 18 10 7 12 26 22 12 15 23 9 10 16 31 17 19 38 59 68 60 71 77
98 87 81 71 61 58 52 47 28 14 47 20 15 14 9 54 48 63 72 54 51 45 19 29 12 32 34 32 4 16 20 30 21 15 13 33 35 36 46 34 34 47 65 72 78
81 101 86 79 68 66 61 64 54 15 13 58 12 55 23 31 34 52 69 50 30 35 22 9 37 29 26 27 19 14 16 31 23 13 15 22 39 41 25 27 52 62 57 62 79
83 96 95 85 74 71 71 60 52 25 9 9 53 33 36 30 15 65 81 49 30 37 40 43 11 24 25 26 24 28 21 16 25 6 12 9 32 33 18 53 62 72 77 78 78
90 53 97 92 81 82 76 60 43 33 7 11 17 21 44 22 14 35 93 47 11 27 24 16 17 30 24 26 29 31 27 23 22 2 13 18 18 20 16 36 36 68 79 92 92
82 89 104 108 86 99 84 58 48 35 5 13 17 18 36 35 13 26 75 43 17 21 15 13 30 28 29 32 29 15 14 4 12 7 9 9 7 12 6 16 26 47 70 87 100
77 89 105 107 73 89 86 75 50 11 15 10 19 24 26 43 27 27 37 59 15 12 19 10 21 20 18 19 35 13 6 12 6 3 10 25 16 13 12 18 15 19 59 78 92
80 90 71 113 99 99 99 85 9 11 8 13 14 19 34 22 26 19 29 31 29 15 16 16 24 7 34 20 12 15 18 5 6 9 13 3 15 27 14 20 17 19 42 54 60
79 61 77 106 99 111 108 20 11 8 14 3 9 13 28 19 24 21 27 31 10 8 13 20 15 30 25 19 14 34 9 12 14 8 3 9 16 12 31 51 56 49 39 30 43
73 66 46 102 116 128 82 24 21 17 18 21 15 17 16 18 13 25 20 27 19 24 14 20 19 25 32 12 24 13 11 4 15 4 5 9 15 18 29 22 24 38 49 57 33
74 59 57 107 132 112 36 15 14 14 15 10 12 12 23 25 21 34 29 26 22 33 21 13 15 24 21 16 18 16 27 9 8 9 9 9 9 16 13 26 17 16 37 45 52
68 31 65 120 121 79 36 14 10 20 19 13 9 10 9 18 20 23 14 7 35 44 33 11 7 6 20 27 33 13 18 10 12 10 10 3 11 17 28 9 17 18 51 47 42
46 4 97 117 26 19 29 17 14 15 9 8 10 11 9 9 10 21 28 14 44 39 35 14 6 11 24 10 23 50 20 9 10 13 9 5 13 10 14 14 19 32 31 35 31
44 16 121 118 22 24 10 9 9 12 11 11 8 6 8 14 9 11 12 4 16 24 26 19 9 8 8 8 9 21 18 39 4 7 19 11 18 9 5 8 7 22 24 25 26
30 11 43 57 25 50 40 9 11 13 8 10 11 9 9 7 1 15 8 7 38 42 24 33 10 12 22 28 10 27 45 45 42 13 29 37 17 10 12 11 10 15 17 19 21
20 10 23 17 20 29 14 12 19 11 9 13 5 7 14 8 8 11 8 4 3 18 8 6 13 18 23 9 13 24 44 40 42 48 25 53 19 26 16 20 24 14 20 22 24
11 20 16 15 48 24 16 24 29 9 14 10 10 17 11 16 17 14 14 10 10 16 16 20 7 17 19 28 12 11 37 45 42 50 48 37 18 12 28 27 20 27 29 31 31
17 41 45 27 32 24 18 22 23 19 6 19 22 13 25 21 6 12 7 8 8 9 21 13 15 10 14 18 5 8 43 52 55 50 61 42 66 14 13 16 37 47 45 43 38
Wind_Direction_500mb
243 235 228 228 237 238 243 243 236 230 231 240 237 229 214 218 231 234 236 225 233 243 217 224 238 260 280 299 272 326 291 246 238 205 242 196 184 172 179 163 174 182 182 209 174
240 240 234 230 229 235 239 240 235 230 224 231 237 229 217 215 232 236 228 222 227 235 223 222 215 221 225 246 288 313 219 235 254 283 244 203 200 172 164 166 180 183 189 178 175
238 237 237 234 228 225 230 233 228 228 221 222 227 228 215 216 237 243 224 224 222 225 216 219 201 173 164 168 156 293 245 314 282 280 273 210 207 186 165 244 197 196 175 174 180
233 235 234 233 230 227 227 227 225 219 229 223 217 224 217 211 222 240 226 223 224 225 212 219 176 156 137 158 162 227 261 291 271 294 285 198 191 188 188 212 218 212 203 182 185
231 230 235 232 231 227 222 223 224 220 216 222 217 216 209 210 218 126 210 198 213 214 212 206 194 161 138 141 142 195 264 306 302 310 280 257 206 204 211 211 235 207 197 195 197
230 229 228 231 229 227 221 219 220 221 216 214 215 217 218 229 225 221 266 201 205 209 206 207 206 213 137 155 152 186 248 265 293 294 278 269 251 206 227 215 227 199 200 204 203
228 226 225 225 227 221 217 216 213 218 215 212 208 220 225 230 213 230 240 213 202 202 207 214 222 200 149 142 135 82 300 289 265 275 245 229 271 229 204 208 211 206 209 210 211
224 224 222 219 221 215 214 213 213 211 212 210 206 221 242 242 233 230 216 206 204 203 210 198 194 181 124 127 76 106 308 257 246 245 250 185 258 233 229 222 217 213 210 214 215
222 220 217 213 212 209 208 208 210 209 208 202 213 214 247 233 222 215 220 203 202 201 200 176 172 147 137 130 92 146 229 229 261 219 222 201 251 233 238 224 227 220 218 219 218
218 217 213 208 204 202 201 200 196 198 189 194 211 190 231 224 210 212 213 204 186 167 169 166 168 164 185 185 207 179 213 242 234 222 281 231 247 264 233 229 230 232 227 223 222
214 213 209 204 199 195 188 178 167 186 191 197 196 188 34 211 202 206 212 195 181 169 187 171 175 208 194 199 129 159 202 230 247 221 213 250 245 244 244 240 239 239 243 229 226
202 208 205 200 194 192 194 188 187 180 196 218 199 215 235 194 201 202 196 181 184 207 141 158 215 205 181 199 193 158 173 238 253 229 228 263 249 247 233 236 241 244 246 239 231
221 202 198 193 190 189 192 195 192 153 97 228 227 222 216 204 227 194 189 188 198 211 201 204 188 158 165 165 183 214 184 237 240 225 255 276 263 252 237 236 244 247 249 242 234
228 196 196 186 183 187 189 183 176 179 63 248 201 230 217 210 276 209 190 183 191 196 180 213 165 165 173 180 180 214 210 220 277 218 241 187 269 248 230 228 225 230 235 241 240
217 221 196 188 179 183 179 164 153 155 101 214 173 186 195 183 143 203 186 176 200 160 166 191 171 172 177 192 179 227 154 187 276 201 330 225 228 258 186 236 235 232 233 235 236
222 218 194 184 180 178 167 157 152 66 237 178 150 175 163 190 194 166 192 204 176 152 199 171 178 164 172 175 184 135 145 70 2 110 241 217 203 261 198 215 249 235 234 237 240
219 219 190 184 175 172 161 157 95 150 289 187 178 171 181 177 172 180 189 189 204 178 178 184 182 162 140 133 167 185 153 139 218 201 229 232 200 249 249 251 232 238 243 246 243
212 220 220 180 178 167 159 138 121 216 197 177 141 162 187 165 190 176 183 208 172 184 170 185 181 172 185 179 169 186 202 165 186 215 221 102 234 244 242 247 247 251 251 272 244
201 206 221 178 174 164 156 177 186 187 166 154 134 167 188 175 183 195 209 193 179 203 174 182 222 177 181 182 144 162 195 183 97 334 64 217 290 287 267 244 246 241 248 244 239
190 193 206 174 170 163 163 193 154 164 133 147 147 178 176 172 166 184 181 205 183 201 220 209 215 190 181 210 215 176 141 147 102 158 245 244 257 248 271 259 261 238 234 240 232
181 180 194 174 165 164 179 175 154 170 135 144 145 141 146 178 173 189 198 211 196 195 207 156 139 264 158 201 192 180 178 199 138 167 188 198 245 221 246 187 248 239 236 232 228
173 185 179 169 157 174 180 160 133 141 135 113 106 111 136 145 142 193 208 226 208 185 197 196 127 192 198 170 238 210 198 202 181 190 204 155 262 231 245 270 244 248 219 215 217
154 173 166 165 157 170 142 157 119 147 151 146 119 134 172 170 141 191 191 226 203 212 195 152 204 151 135 322 329 212 232 201 257 83 216 178 253 309 311 314 257 206 201 204 210
160 153 155 171 177 165 160 165 117 131 110 117 117 116 118 152 7 182 215 230 190 201 188 152 192 205 195 210 110 200 204 202 203 206 228 230 246 285 271 234 223 205 218 208 201
197 144 140 152 159 157 137 135 129 140 115 138 75 150 150 132 155 188 181 288 136 162 181 183 209 211 244 272 196 210 211 206 204 220 202 236 217 236 239 225 215 238 206 201 201
153 145 137 131 149 142 157 177 169 131 134 181 132 164 181 183 181 174 159 210 213 170 187 184 272 192 234 253 257 207 208 213 217 225 233 236 257 207 245 243 224 231 204 197 192
152 149 130 136 157 160 183 161 159 126 33 160 153 147 209 214 160 130 182 250 292 178 193 161 183 172 234 222 205 253 208 204 215 220 222 226 232 163 232 220 222 221 212 199 186
Wind_Speed_850mb
50 53 55 48 45 39 38 34 37 43 37 29 31 29 38 35 38 43 52 40 41 28 44 44 38 49 42 27 18 15 2 6 9 9 9 13 10 14 16 25 18 25 20 15 60
51 51 53 57 48 43 36 35 30 35 40 32 29 27 35 37 37 59 51 37 38 29 37 51 41 39 27 10 3 4 4 9 9 7 10 24 20 27 14 22 12 24 24 29 64
53 52 49 50 52 47 41 35 27 26 39 37 28 26 32 39 33 59 54 47 42 37 34 38 39 46 19 11 6 4 7 14 23 34 28 33 22 26 20 8 30 46 41 53 69
56 52 51 48 49 48 45 38 31 33 30 41 34 31 33 35 15 12 38 59 44 41 37 42 52 39 20 17 17 4 24 22 43 35 16 16 24 18 34 22 40 42 47 60 73
63 56 51 50 46 44 44 40 36 33 36 41 37 34 34 35 45 3 15 55 57 53 47 47 45 22 17 19 24 9 13 29 50 37 28 17 19 17 40 28 18 41 54 61 65
70 63 53 49 50 44 42 39 39 35 36 39 45 32 45 36 48 55 8 30 55 59 53 53 35 28 30 17 20 14 19 39 42 43 27 12 12 9 29 35 26 37 57 63 66
77 69 59 49 50 46 43 39 39 37 37 35 43 46 50 40 9 47 47 39 49 60 56 57 50 22 38 20 17 4 9 20 54 37 16 18 15 16 21 32 41 43 50 67 66
80 75 66 53 49 49 45 40 37 36 33 38 41 38 32 50 47 27 43 46 58 53 48 40 41 28 9 34 12 9 4 12 27 26 20 18 18 12 39 37 45 46 53 62 68
83 79 70 59 50 48 44 40 33 35 31 36 38 37 17 37 57 55 50 48 51 53 43 40 38 13 16 11 7 8 15 20 26 22 14 15 13 22 35 52 56 51 61 65 71
88 83 75 65 55 50 46 40 32 30 33 30 31 21 33 32 60 72 52 49 52 47 46 33 18 10 7 12 26 22 12 15 23 9 10 16 31 17 19 38 59 68 60 71 77
98 87 81 71 61 58 52 47 28 14 47 20 15 14 9 54 48 63 72 54 51 45 19 29 12 32 34 32 4 16 20 30 21 15 13 33 35 36 46 34 34 47 65 72 78
81 101 86 79 68 66 61 64 54 15 13 58 12 55 23 31 34 52 69 50 30 35 22 9 37 29 26 27 19 14 16 31 23 13 15 22 39 41 25 27 52 62 57 62 79
83 96 95 85 74 71 71 60 52 25 9 9 53 33 36 30 15 65 81 49 30 37 40 43 11 24 25 26 24 28 21 16 25 6 12 9 32 33 18 53 62 72 77 78 78
90 53 97 92 81 82 76 60 43 33 7 11 17 21 44 22 14 35 93 47 11 27 24 16 17 30 24 26 29 31 27 23 22 2 13 18 18 20 16 36 36 68 79 92 92
82 89 104 108 86 99 84 58 48 35 5 13 17 18 36 35 13 26 75 43 17 21 15 13 30 28 29 32 29 15 14 4 12 7 9 9 7 12 6 16 26 47 70 87 100
77 89 105 107 73 89 86 75 50 11 15 10 19 24 26 43 27 27 37 59 15 12 19 10 21 20 18 19 35 13 6 12 6 3 10 25 16 13 12 18 15 19 59 78 92
80 90 71 113 99 99 99 85 9 11 8 13 14 19 34 22 26 19 29 31 29 15 16 16 24 7 34 20 12 15 18 5 6 9 13 3 15 27 14 20 17 19 42 54 60
79 61 77 106 99 111 108 20 11 8 14 3 9 13 28 19 24 21 27 31 10 8 13 20 15 30 25 19 14 34 9 12 14 8 3 9 16 12 31 51 56 49 39 30 43
73 66 46 102 116 128 82 24 21 17 18 21 15 17 16 18 13 25 20 27 19 24 14 20 19 25 32 12 24 13 11 4 15 4 5 9 15 18 29 22 24 38 49 57 33
74 59 57 107 132 112 36 15 14 14 15 10 12 12 23 25 21 34 29 26 22 33 21 13 15 24 21 16 18 16 27 9 8 9 9 9 9 16 13 26 17 16 37 45 52
68 31 65 120 121 79 36 14 10 20 19 13 9 10 9 18 20 23 14 7 35 44 33 11 7 6 20 27 33 13 18 10 12 10 10 3 11 17 28 9 17 18 51 47 42
46 4 97 117 26 19 29 17 14 15 9 8 10 11 9 9 10 21 28 14 44 39 35 14 6 11 24 10 23 50 20 9 10 13 9 5 13 10 14 14 19 32 31 35 31
44 16 121 118 22 24 10 9 9 12 11 11 8 6 8 14 9 11 12 4 16 24 26 19 9 8 8 8 9 21 18 39 4 7 19 11 18 9 5 8 7 22 24 25 26
30 11 43 57 25 50 40 9 11 13 8 10 11 9 9 7 1 15 8 7 38 42 24 33 10 12 22 28 10 27 45 45 42 13 29 37 17 10 12 11 10 15 17 19 21
20 10 23 17 20 29 14 12 19 11 9 13 5 7 14 8 8 11 8 4 3 18 8 6 13 18 23 9 13 24 44 40 42 48 25 53 19 26 16 20 24 14 20 22 24
11 20 16 15 48 24 16 24 29 9 14 10 10 17 11 16 17 14 14 10 10 16 16 20 7 17 19 28 12 11 37 45 42 50 48 37 18 12 28 27 20 27 29 31 31
17 41 45 27 32 24 18 22 23 19 6 19 22 13 25 21 6 12 7 8 8 9 21 13 15 10 14 18 5 8 43 52 55 50 61 42 66 14 13 16 37 47 45 43 38
Wind_Direction_850mb
243 235 228 228 237 238 243 243 236 230 231 240 237 229 214 218 231 234 236 225 233 243 217 224 238 260 280 299 272 326 291 246 238 205 242 196 184 172 179 163 174 182 182 209 174
240 240 234 230 229 235 239 240 235 230 224 231 237 229 217 215 232 236 228 222 227 235 223 222 215 221 225 246 288 313 219 235 254 283 244 203 200 172 164 166 180 183 189 178 175
238 237 237 234 228 225 230 233 228 228 221 222 227 228 215 216 237 243 224 224 222 225 216 219 201 173 164 168 156 293 245 314 282 280 273 210 207 186 165 244 197 196 175 174 180
233 235 234 233 230 227 227 227 225 219 229 223 217 224 217 211 222 240 226 223 224 225 212 219 176 156 137 158 162 227 261 291 271 294 285 198 191 188 188 212 218 212 203 182 185
231 230 235 232 231 227 222 223 224 220 216 222 217 216 209 210 218 126 210 198 213 214 212 206 194 161 138 141 142 195 264 306 302 310 280 257 206 204 211 211 235 207 197 195 197
230 229 228 231 229 227 221 219 220 221 216 214 215 217 218 229 225 221 266 201 205 209 206 207 206 213 137 155 152 186 248 265 293 294 278 269 251 206 227 215 227 199 200 204 203
228 226 225 225 227 221 217 216 213 218 215 212 208 220 225 230 213 230 240 213 202 202 207 214 222 200 149 142 135 82 300 289 265 275 245 229 271 229 204 208 211 206 209 210 211
224 224 222 219 221 215 214 213 213 211 212 210 206 221 242 242 233 230 216 206 204 203 210 198 194 181 124 127 76 106 308 257 246 245 250 185 258 233 229 222 217 213 210 214 215
222 220 217 213 212 209 208 208 210 209 208 202 213 214 247 233 222 215 220 203 202 201 200 176 172 147 137 130 92 146 229 229 261 219 222 201 251 233 238 224 227 220 218 219 218
218 217 213 208 204 202 201 200 196 198 189 194 211 190 231 224 210 212 213 204 186 167 169 166 168 164 185 185 207 179 213 242 234 222 281 231 247 264 233 229 230 232 227 223 222
214 213 209 204 199 195 188 178 167 186 191 197 196 188 34 211 202 206 212 195 181 169 187 171 175 208 194 199 129 159 202 230 247 221 213 250 245 244 244 240 239 239 243 229 226
202 208 205 200 194 192 194 188 187 180 196 218 199 215 235 194 201 202 196 181 184 207 141 158 215 205 181 199 193 158 173 238 253 229 228 263 249 247 233 236 241 244 246 239 231
221 202 198 193 190 189 192 195 192 153 97 228 227 222 216 204 227 194 189 188 198 211 201 204 188 158 165 165 183 214 184 237 240 225 255 276 263 252 237 236 244 247 249 242 234
228 196 196 186 183 187 189 183 176 179 63 248 201 230 217 210 276 209 190 183 191 196 180 213 165 165 173 180 180 214 210 220 277 218 241 187 269 248 230 228 225 230 235 241 240
217 221 196 188 179 183 179 164 153 155 101 214 173 186 195 183 143 203 186 176 200 160 166 191 171 172 177 192 179 227 154 187 276 201 330 225 228 258 186 236 235 232 233 235 236
222 218 194 184 180 178 167 157 152 66 237 178 150 175 163 190 194 166 192 204 176 152 199 171 178 164 172 175 184 135 145 70 2 110 241 217 203 261 198 215 249 235 234 237 240
219 219 190 184 175 172 161 157 95 150 289 187 178 171 181 177 172 180 189 189 204 178 178 184 182 162 140 133 167 185 153 139 218 201 229 232 200 249 249 251 232 238 243 246 243
212 220 220 180 178 167 159 138 121 216 197 177 141 162 187 165 190 176 183 208 172 184 170 185 181 172 185 179 169 186 202 165 186 215 221 102 234 244 242 247 247 251 251 272 244
201 206 221 178 174 164 156 177 186 187 166 154 134 167 188 175 183 195 209 193 179 203 174 182 222 177 181 182 144 162 195 183 97 334 64 217 290 287 267 244 246 241 248 244 239
190 193 206 174 170 163 163 193 154 164 133 147 147 178 176 172 166 184 181 205 183 201 220 209 215 190 181 210 215 176 141 147 102 158 245 244 257 248 271 259 261 238 234 240 232
181 180 194 174 165 164 179 175 154 170 135 144 145 141 146 178 173 189 198 211 196 195 207 156 139 264 158 201 192 180 178 199 138 167 188 198 245 221 246 187 248 239 236 232 228
173 185 179 169 157 174 180 160 133 141 135 113 106 111 136 145 142 193 208 226 208 185 197 196 127 192 198 170 238 210 198 202 181 190 204 155 262 231 245 270 244 248 219 215 217
154 173 166 165 157 170 142 157 119 147 151 146 119 134 172 170 141 191 191 226 203 212 195 152 204 151 135 322 329 212 232 201 257 83 216 178 253 309 311 314 257 206 201 204 210
160 153 155 171 177 165 160 165 117 131 110 117 117 116 118 152 7 182 215 230 190 201 188 152 192 205 195 210 110 200 204 202 203 206 228 230 246 285 271 234 223 205 218 208 201
197 144 140 152 159 157 137 135 129 140 115 138 75 150 150 132 155 188 181 288 136 162 181 183 209 211 244 272 196 210 211 206 204 220 202 236 217 236 239 225 215 238 206 201 201
153 145 137 131 149 142 157 177 169 131 134 181 132 164 181 183 181 174 159 210 213 170 187 184 272 192 234 253 257 207 208 213 217 225 233 236 257 207 245 243 224 231 204 197 192
152 149 130 136 157 160 183 161 159 126 33 160 153 147 209 214 160 130 182 250 292 178 193 161 183 172 234 222 205 253 208 204 215 220 222 226 232 163 232 220 222 221 212 199 186